Location: Calvatone
(45.1167°N, 10.4333°E)
Time: 11:26:49
(UTC+00:00)

Meteor 1-24 Rocket - Pass Details

Date: 28 January 2023
Orbit: 790 x 927 km, 81.3° (Epoch: 25 March)

Event Time Altitude Azimuth Distance (km) Brightness Sun altitude
Rises 17:02:11 0° 199° (SSW) 3,489 7.5 -7.8°
Reaches altitude 10° 17:04:42 10° 203° (SSW) 2,535 6.8 -8.2°
Maximum altitude 17:10:23 60° 283° (WNW) 978 4.4 -9.2°
Drops below altitude 10° 17:15:55 10° 4° (N) 2,459 5.9 -10.1°
Sets 17:18:20 0° 8° (N) 3,378 6.6 -10.5°
